Location: Caltech
(34.1382°N, 118.1253°W)
Time: 00:52:17
(UTC-07:00)

Uribyol 2 - Visible Passes

Search period start: 25 June 2018 00:00
Search period end: 05 July 2018 00:00
Orbit: 783 x 796 km, 98.8° (Epoch: 24 June)

Date Brightness Start Highest point End Pass type
(mag) Time Alt. Az. Time Alt. Az. Time Alt. Az.
25 Jun ? 05:05:10 10° NNE 05:10:25 85° WNW 05:15:38 10° SSW visible
26 Jun ? 04:35:40 10° NNE 04:40:43 48° E 04:45:43 10° S visible
27 Jun ? 04:06:42 10° NE 04:10:53 24° E 04:15:01 10° SSE visible
28 Jun ? 03:39:16 10° ENE 03:40:55 11° E 03:42:34 10° ESE visible
29 Jun ? 04:45:54 10° NNE 04:51:05 61° ESE 04:56:12 10° S visible
30 Jun ? 04:16:44 10° NE 04:21:17 30° E 04:25:47 10° SSE visible
01 Jul ? 03:48:28 10° ENE 03:51:22 15° E 03:54:15 10° SE visible
02 Jul ? 04:56:11 10° NNE 05:01:26 77° ESE 05:06:37 10° S visible
03 Jul ? 04:26:50 10° NNE 04:31:41 38° E 04:36:28 10° SSE visible
04 Jul ? 03:58:10 10° NE 04:01:48 19° E 04:05:25 10° SE visible
